2015-07-05 09:33,19,4.4
2015-07-05 09:34,16,4.0
2015-07-05 09:35,10,3.2
2015-07-05 09:36,20,4.5
2015-07-05 09:37,20,4.5
2015-07-05 09:38,24,4.9
2015-07-05 09:39,18,4.2
2015-07-05 09:40,17,4.1
2015-07-05 09:41,18,4.2
2015-07-05 09:42,17,4.1
2015-07-05 09:43,20,4.5
2015-07-05 09:44,25,5.0
2015-07-05 09:45,19,4.4
2015-07-05 09:46,22,4.7
2015-07-05 09:47,21,4.6
2015-07-05 09:48,17,4.1
2015-07-05 09:49,15,3.9
2015-07-05 09:50,18,4.2
2015-07-05 09:51,22,4.7
2015-07-05 09:52,18,4.2
2015-07-05 09:53,10,3.2
2015-07-05 09:54,24,4.9
2015-07-05 09:55,24,4.9
2015-07-05 09:56,19,4.4
2015-07-05 09:57,30,5.5
2015-07-05 09:58,30,5.5
2015-07-05 09:59,48,6.9
2015-07-05 10:00,56,7.5
2015-07-05 10:01,66,8.1
2015-07-05 10:02,116,10.8
2015-07-05 10:03,96,9.8
2015-07-05 10:04,124,11.1
2015-07-05 10:05,162,12.7
2015-07-05 10:06,166,12.9
2015-07-05 10:07,194,13.9
2015-07-05 10:08,208,14.4
2015-07-05 10:09,235,15.3
2015-07-05 10:10,264,16.2
2015-07-05 10:11,243,15.6
2015-07-05 10:12,293,17.1
2015-07-05 10:13,278,16.7
2015-07-05 10:14,307,17.5
2015-07-05 10:15,291,17.1
2015-07-05 10:16,295,17.2
2015-07-05 10:17,257,16.0
2015-07-05 10:18,342,18.5
2015-07-05 10:19,292,17.1
2015-07-05 10:20,299,17.3
2015-07-05 10:21,297,17.2
2015-07-05 10:22,314,17.7
2015-07-05 10:23,271,16.5
2015-07-05 10:24,291,17.1
2015-07-05 10:25,302,17.4
2015-07-05 10:26,303,17.4
2015-07-05 10:27,308,17.5
2015-07-05 10:28,313,17.7
2015-07-05 10:29,304,17.4
2015-07-05 10:30,267,16.3
2015-07-05 10:31,273,16.5
2015-07-05 10:32,295,17.2
2015-07-05 10:33,297,17.2
2015-07-05 10:34,320,17.9
2015-07-05 10:35,305,17.5
2015-07-05 10:36,284,16.9
2015-07-05 10:37,273,16.5
2015-07-05 10:38,290,17.0
2015-07-05 10:39,279,16.7
2015-07-05 10:40,299,17.3
2015-07-05 10:41,273,16.5
2015-07-05 10:42,256,16.0
2015-07-05 10:43,249,15.8
2015-07-05 10:44,224,15.0
2015-07-05 10:45,228,15.1
2015-07-05 10:46,211,14.5
2015-07-05 10:47,213,14.6
2015-07-05 10:48,172,13.1
2015-07-05 10:49,188,13.7
2015-07-05 10:50,205,14.3
2015-07-05 10:51,181,13.5
2015-07-05 10:52,172,13.1
2015-07-05 10:53,150,12.2
2015-07-05 10:54,135,11.6
2015-07-05 10:55,135,11.6
2015-07-05 10:56,136,11.7
2015-07-05 10:57,122,11.0
2015-07-05 10:58,108,10.4
2015-07-05 10:59,71,8.4
2015-07-05 11:00,98,9.9
2015-07-05 11:01,69,8.3
2015-07-05 11:02,56,7.5
2015-07-05 11:03,36,6.0
2015-07-05 11:04,55,7.4
2015-07-05 11:05,22,4.7
2015-07-05 11:06,19,4.4
2015-07-05 11:07,22,4.7
2015-07-05 11:08,19,4.4
2015-07-05 11:09,22,4.7
2015-07-05 11:10,12,3.5
2015-07-05 11:11,15,3.9
2015-07-05 11:12,16,4.0
2015-07-05 11:13,16,4.0
2015-07-05 11:14,14,3.7
2015-07-05 11:15,18,4.2
2015-07-05 11:16,6,2.4
2015-07-05 11:17,10,3.2
2015-07-05 11:18,11,3.3
2015-07-05 11:19,12,3.5
2015-07-05 11:20,15,3.9
2015-07-05 11:21,17,4.1
2015-07-05 11:22,6,2.4
2015-07-05 12:43,15,3.9
2015-07-05 12:44,13,3.6
2015-07-05 12:45,14,3.7
2015-07-05 12:46,11,3.3
